Regional Weather Roundup
Issued by NWS

Home | Current Version | Previous Version | Graphics & Text | Print | Product List | Glossary On
Versions: 1 2 3 4 5 6 7 8 9 10 11 12 13 14 15 16 17 18 19 20 21 22 23 24 25 26 27 28 29 30 31 32 33 34 35 36 37 38 39 40 41 42 43 44 45 46 47 48 49 50
404
ASUS43 KDMX 241403
RWRIA

WEATHER ROUNDUP FOR IOWA
NATIONAL WEATHER SERVICE DES MOINES IA
900 AM CDT SUN JUL 24 2016

NOTE: "FAIR" INDICATES FEW OR NO CLOUDS BELOW 12,000 FEET WITH NO
SIGNIFICANT WEATHER AND/OR OBSTRUCTIONS TO VISIBILITY.

* - THESE STATIONS ARE NOT NWS STATIONS...THUS NOT UNDER NWS
QUALITY CONTROL.  THEY ALSO DO NOT REPORT WEATHER SUCH
AS PRECIPITATION OR FOG.

IAZ001>003-012>014-020>022-031>034-043>046-241500-
   NORTHWEST IOWA

CITY           SKY/WX    TMP DP  RH WIND       PRES   REMARKS
CARROLL *      SUNNY     79  70  73 N12G20    29.92R HX  81
CHEROKEE *     SUNNY     76  65  68 N9        29.93R
LE MARS *      SUNNY     77  66  69 N12       29.95R
SHELDON *      SUNNY     75  68  78 N10       29.96R
SIOUX CITY     SUNNY     81  64  56 N10       29.94R HX  82
SPENCER        SUNNY     76  65  68 N7        29.94R
STORM LAKE *   SUNNY     75  63  64 NE12G18   29.94S
$$

IAZ055>058-069>071-079>083-090>094-241500-
   SOUTHWEST IOWA

CITY           SKY/WX    TMP DP  RH WIND       PRES   REMARKS
ATLANTIC *     MOSUNNY   81  75  83 N10       29.92R HX  86
CLARINDA *       N/A     82  77  83 MISG      29.93R HX  91
COUNCIL BLFS * SUNNY     81  70  69 NE13      29.94R HX  84
CRESTON *      MOSUNNY   81  75  83 NW10      29.93R HX  86
HARLAN  *      SUNNY     79  70  73 MISG      29.96R HX  81
LAMONI         CLOUDY    80  75  84 S13       29.90S HX  85
RED OAK *      MOSUNNY   82  77  83 NE10G17   29.92R HX  91
SHENANDOAH *   MOSUNNY   82  79  89 NE10      29.92R HX  93
$$

IAZ047>049-059>061-072>074-084-241500-
   CENTRAL IOWA

CITY           SKY/WX    TMP DP  RH WIND       PRES   REMARKS
AMES           CLOUDY    81  77  88 N9        29.88R HX  88
ANKENY *         N/A    N/A N/A N/A MISG        N/A
BOONE *        SUNNY     81  73  78 N14G21    29.89R HX  85
CHARITON *       N/A    N/A N/A N/A MISG        N/A
DES MOINES     CLOUDY    83  75  77 NW9       29.87R HX  90
GRINNELL*      SUNNY     83  75  77 SW7       29.88R HX  89
KNOXVILLE *    MOSUNNY   84  75  74 W10       29.86S HX  92
MARSHALLTOWN   CLOUDY    81  77  88 W9        29.86R HX  88
NEWTON *       SUNNY     82  79  89 W10       29.87R HX  93
PELLA *        SUNNY     85  74  70 SW8       29.87S HX  93
PERRY *          N/A     81  76  83 NW7G18    29.90R HX  87
$$

IAZ004>006-015-016-023>025-035-036-241500-
   NORTH CENTRAL IOWA

CITY           SKY/WX    TMP DP  RH WIND       PRES   REMARKS
ALGONA *       SUNNY     77  70  78 N12G17    29.92R
ESTHERVILLE    SUNNY     74  66  76 N15       29.93R
FORT DODGE *   SUNNY     77  72  83 N7        29.92R
MASON CITY     SUNNY     78  72  81 NW16      29.90R HX  80
FOREST CITY *    N/A     77  70  78 N12       29.90R
IOWA FALLS *     N/A     80  73  80 NW12G17   29.89R HX  84
$$

IAZ007>011-017>019-026>030-037>042-050>054-066-241500-
   NORTHEAST IOWA

CITY           SKY/WX    TMP DP  RH WIND       PRES   REMARKS
CEDAR RAPIDS   SUNNY     83  79  88 SW9       29.84S HX  94
CHARLES CITY * CLOUDY    79  79 100 NW7       29.86R HX  83
CLINTON *      SUNNY     83  79  88 SW13      29.86S HX  94
DECORAH *      CLOUDY    77  77 100 VRB6      29.83R
DUBUQUE        SUNNY     82  77  84 SW9       29.85S HX  90
MONTICELLO *   SUNNY     82  79  89 SW8G16    29.84S HX  93
OELWEIN *      PTSUNNY   81  77  89 W9G15     29.85R HX  88
WATERLOO       PTSUNNY   81  76  84 W6        29.83R HX  87
$$

IAZ064-065-067-068-078-241500-
   EAST CENTRAL IOWA

CITY           SKY/WX    TMP DP  RH WIND       PRES   REMARKS
DAVENPORT      SUNNY     84  76  76 SW10      29.86S HX  93
IOWA CITY      CLOUDY    85  78  80 SW8       29.86R HX  96
MT. PLEASANT * SUNNY     86  80  82 SW12      29.87S HX 102
MUSCATINE *    SUNNY     86  77  74 SW10      29.86R HX  97
QUAD CITIES    SUNNY     86  77  74 S8        29.85S HX  97
$$

IAZ062-063-075>077-085>089-095>099-241500-
   SOUTHEAST IOWA

CITY           SKY/WX    TMP DP  RH WIND       PRES   REMARKS
BURLINGTON     SUNNY     83  79  88 S12       29.88S HX  94
FAIRFIELD *    MOSUNNY   82  75  78 SW7       29.86S HX  89
KEOKUK *       SUNNY     86  77  74 S10       29.88F HX  97
CENTERVILLE *    N/A     81  75  83 SW7       29.90S HX  86
OTTUMWA        CLOUDY    82  74  76 SW6       29.86F HX  88
WASHINGTON *   CLOUDY    82  79  89 SW8       29.87S HX  93
$$

ABBREVIATIONS USED IN REMARKS
   TC - TEMPERATURES IN CELSIUS
  WCI - WIND CHILL INDEX
   HX - HEAT INDEX
  VSB - VISIBILITY
$$





USA.gov is the U.S. government's official web portal to all federal, state and local government web resources and services.